Location: Newark
(25.4800°N, 85.7200°E)
Time: 01:34:51
(UTC+00:00)

Explorer 11/Cluster Stage 4 - Pass Details

Date: 25 August 2019
Orbit: 467 x 1260 km, 28.8° (Epoch: 19 September)

Event Time Altitude Azimuth Distance (km) Brightness Sun altitude
Rises 09:32:59 0° 283° (WNW) 4,140 11.0 42.0°
Reaches altitude 10° 09:36:09 10° 277° (W) 3,109 10.7 41.3°
Maximum altitude 09:43:27 45° 208° (SSW) 1,404 8.8 39.7°
Drops below altitude 10° 09:49:35 10° 137° (SE) 2,615 9.1 38.3°
Sets 09:52:03 0° 130° (SE) 3,433 9.5 37.7°
